Regional Weather Roundup
Issued by NWS

Home | Current Version | Previous Version | Graphics & Text | Print | Product List | Glossary On
Versions: 1 2 3 4 5 6 7 8 9 10 11 12 13 14 15 16 17 18 19 20 21 22 23 24 25 26 27 28 29 30 31 32 33 34 35 36 37 38 39 40 41 42 43 44 45 46 47 48 49 50
000
ASUS43 KMPX 260110
RWRMN
WEATHER ROUNDUP FOR MINNESOTA
NATIONAL WEATHER SERVICE TWIN CITIES/CHANHASSEN MN
700 PM CST THU DEC 25 2014


NOTE: "FAIR" INDICATES FEW OR NO CLOUDS BELOW 12,000 FEET WITH NO
SIGNIFICANT WEATHER AND/OR OBSTRUCTIONS TO VISIBILITY. N/A MEANS
CURRENT SKY AND/OR WEATHER CONDITIONS ARE NOT AVAILABLE.

MNZ060>063-068>070-260200-
   Twin Cities Metro

CITY           SKY/WX    TMP DP  RH WIND       PRES   REMARKS
TWIN CITIES    CLOUDY    34  29  82 N5        29.83R WCI  30
ST PAUL        CLOUDY    34  30  85 CALM      29.85R
CRYSTAL        CLOUDY    34  31  88 NE5       29.83R FOG     WCI  30
BLAINE         MIX PCPN  34  34 100 CALM      29.84R
LAKEVILLE      CLOUDY    30  28  93 CALM      29.82R
EDEN PRAIRIE   CLOUDY    34  30  85 NE5       29.82R WCI  30
SOUTH ST PAUL  CLOUDY    34  30  85 CALM      29.84R
LAKE ELMO      CLOUDY    32  32 100 N3        29.84R
$$
MNZ001>005-007-008-013>017-022>024-027-028-260200-
   Northwest Minnesota

CITY           SKY/WX    TMP DP  RH WIND       PRES   REMARKS
BEMIDJI        CLOUDY    25  21  85 N6        29.86R WCI  18
HALLOCK        CLOUDY    27  21  80 NW12      29.93R WCI  16
ROSEAU         CLOUDY    27  23  86 NW8       29.89R WCI  18
WARROAD        CLOUDY    27  21  80 W5        29.88R WCI  21
THIEF RVR FALL CLOUDY    27  21  80 N9        29.89S WCI  17
CROOKSTON      CLOUDY    27  23  86 N13       29.91S WCI  16
FOSSTON        CLOUDY    23  19  86 N14       29.88R WCI  11
DETROIT LAKES  CLOUDY    27  25  93 N7G17     29.87R WCI  19
MOORHEAD       CLOUDY    28  27  93 N14       29.91R WCI  17
PARK RAPIDS    CLOUDY    29  22  75 N10       29.84R WCI  20
MAHNOMEN       CLOUDY    25  22  87 N12       29.87R WCI  14
$$
MNZ006-009>011-018-025>026-260200-
   North Central Minnesota

CITY           SKY/WX    TMP DP  RH WIND       PRES   REMARKS
BAUDETTE       CLOUDY    27  23  85 NW7       29.85R WCI  19
FLAG ISLAND    CLOUDY    27  25  93 NW13      29.86R WCI  16
INTL FALLS     CLOUDY    28  22  78 NW10      29.84R WCI  19
WASKISH        CLOUDY    27  23  86 CALM      29.87R
BIG FORK       CLOUDY    28  23  80 NW3       29.84R
LONGVILLE      CLOUDY    28  23  80 CALM      29.84R
GRAND RAPIDS   CLOUDY    30  21  69 NW5       29.83R WCI  25
CRANE LAKE     CLOUDY    28  25  86 CALM      29.85R
ORR            CLOUDY    28  21  74 CALM      29.81R
COOK           CLOUDY    28  25  86 NW3       29.82R
WALKER         CLOUDY    27  21  77 NW3       29.85R
$$
MNZ012-019>021-037-260200-
   Northeast Minnesota

CITY           SKY/WX    TMP DP  RH WIND       PRES   REMARKS
DULUTH         CLOUDY    31  25  78 NW3       29.82R
ELY            CLOUDY    28  25  86 NW3       29.80S
HIBBING        CLOUDY    31  22  69 NW5       29.82R WCI  26
EVELETH        CLOUDY    32  25  74 NW5       29.83R WCI  27
DULUTH HARBOR  CLOUDY    34  30  86 CALM      29.87R
TWO HARBORS    CLOUDY    34  28  80 CALM      29.82R
SILVER BAY     CLOUDY    34  28  80 CALM      29.81R
GRAND MARAIS     N/A     32  28  85 CALM      29.84R
G MARAIS ARPRT CLOUDY    27  21  80 CALM      29.78R
$$
MNZ029>031-032-039>041-046>048-054>057-064-260200-
   West Central Minnesota

CITY           SKY/WX    TMP DP  RH WIND       PRES   REMARKS
FERGUS FALLS   CLOUDY    28  27  93 N6        29.89R WCI  22
WHEATON        CLOUDY    27  25  93 N8        29.90R WCI  18
MORRIS         CLOUDY    30  27  86 N13       29.85R WCI  20
ALEXANDRIA     CLOUDY    30  25  81 N12       29.83R WCI  20
ELBOW LAKE     CLOUDY    28  26  91 N8        29.85R WCI  20
WADENA         CLOUDY    27  23  86 N8        29.84R WCI  18
GLENWOOD       CLOUDY    28  27  93 N6        29.84R WCI  22
APPLETON       CLOUDY    30  27  86 N13       29.85R WCI  20
BENSON         MIX PCPN  30  27  86 NE9       29.85R WCI  22
ORTONVILLE     CLOUDY    28  25  86 N10       29.86R WCI  19
MADISON        LGT SNOW  34  30  86 N13       29.85R WCI  25
WILLMAR        LGT SNOW  34  30  86 N5        29.84R WCI  30
$$
MNZ033>034-036-042>043-049>051-058-059-260200-
   Central Minnesota

CITY           SKY/WX    TMP DP  RH WIND       PRES   REMARKS
ST CLOUD       CLOUDY    36  28  73 N6        29.83R
SAUK CENTRE    CLOUDY    30  26  84 N8        29.83R WCI  22
PAYNESVILLE    CLOUDY    30  28  92 N5        29.84R WCI  25
AITKIN         CLOUDY    32  25  74 CALM      29.83R
PINE RIVER     CLOUDY    30  25  80 N3        29.88R
BRAINERD       CLOUDY    30  23  75 N3        29.84R
STAPLES        CLOUDY    28  25  86 N6        29.83F WCI  22
LONG PRAIRIE   CLOUDY    30  25  80 N7        29.83R WCI  23
LITTLE FALLS   CLOUDY    32  27  80 CALM      29.84R
LITCHFIELD     LGT SNOW  34  34 100 CALM      29.83R
BUFFALO        LGT SNOW  32  31  95 CALM      29.84R
MAPLE LAKE     LGT SNOW  33  32  99 CALM      29.85R
$$
MNZ037-044-045-052-053-260200-
   East Central Minnesota

CITY           SKY/WX    TMP DP  RH WIND       PRES   REMARKS
PRINCETON      LGT SNOW  34  30  86 CALM      29.84R
MORA           CLOUDY    32  28  86 CALM      29.85R
CAMBRIDGE      LGT SNOW  34  28  80 CALM      29.82R
RUSH CITY      LGT RAIN  32  31  95 CALM      29.85R
MOOSE LAKE     CLOUDY    32  28  86 N5        29.83R WCI  27
HINCKLEY       CLOUDY    32  32 100 CALM      29.84R
CLOQUET        CLOUDY    30  27  86 CALM      29.84R
MCGREGOR       CLOUDY    32  27  80 NW5       29.85R WCI  27
$$
MNZ071>073-080-081-089-090-097-098-260200-
   Southwest Minnesota

CITY           SKY/WX    TMP DP  RH WIND       PRES   REMARKS
MONTEVIDEO     LGT SNOW  30  30 100 NE13      29.85R WCI  20
GRANITE FALLS  CLOUDY    31  29  95 N7        29.85R FOG     WCI  24
CANBY          LGT SNOW  29  28  96 N9G16     29.85R WCI  21
MARSHALL       CLOUDY    30  25  80 N13       29.82R WCI  20
REDWOOD FALLS  CLOUDY    33  30  88 N5        29.82R WCI  29
OLIVIA         CLOUDY    30  30 100 CALM      29.82R FOG
PIPESTONE      CLOUDY    28  28 100 NE10G17   29.78R FOG     WCI  19
WINDOM         CLOUDY    32  30  93 N8        29.78S WCI  25
WORTHINGTON    CLOUDY    30 -17  12 NE14      29.77R WCI  20
JACKSON        CLOUDY    32  32 100 NE10      29.77R WCI  24
TRACY          CLOUDY    32  31  96 NE10      29.81R FOG     WCI  24
SLAYTON        CLOUDY    31  30  99 NE9       29.80R FOG     WCI  22
$$
MNZ065>067-074>077-082>085-091>093-260200-
   South Central Minnesota

CITY           SKY/WX    TMP DP  RH WIND       PRES   REMARKS
MANKATO        CLOUDY    34  28  80 NE3       29.81R
NEW ULM        CLOUDY    32  30  93 NE3       29.82R
ST JAMES       CLOUDY    34  30  86 N6        29.81R WCI  29
FAIRMONT       MOCLDY    34  28  80 NE7       29.78R WCI  28
GLENCOE        CLOUDY    33  32  97 N3        29.82R FOG
FARIBAULT      CLOUDY    34  30  86 E3        29.82R
OWATONNA       CLOUDY    32  28  86 E3        29.81R
WASECA         CLOUDY    32  30  93 NE5       29.82R WCI  27
ALBERT LEA     MOCLDY    32  30  93 CALM      29.78S
$$
MNZ078>079-086>088-094>096-260200-
   Southeast Minnesota

CITY           SKY/WX    TMP DP  RH WIND       PRES   REMARKS
ROCHESTER      CLOUDY    32  29  88 E3        29.81R
RED WING       CLOUDY    34  30  86 CALM      29.83R
STANTON        CLOUDY    33  30  90 CALM      29.82R
DODGE CENTER   CLOUDY    30  30 100 E5        29.80R WCI  25
WINONA         CLOUDY    34  32  93 CALM      29.84R
AUSTIN         MOCLDY    30  30 100 CALM      29.79S
PRESTON        MOCLDY    33  30  88 S3        29.81R
$$
ABBREVIATIONS USED IN REMARKS
   TC - TEMPERATURES IN CELSIUS
  WCI - WIND CHILL INDEX
   HX - HEAT INDEX
  VSB - VISIBILITY
$$


USA.gov is the U.S. government's official web portal to all federal, state and local government web resources and services.